Location: Hurstbourne Priors
(51.2000°N, 1.3667°W)
Time: 03:23:33
(UTC+00:00)

Cosmos 1656 - Pass Details

Date: 09 April 2020
Orbit: 798 x 849 km, 71.1° (Epoch: 06 June)

Event Time Altitude Azimuth Distance (km) Brightness Sun altitude
Rises 21:22:25 0° 328° (NNW) 3,422 8.3 -21.0°
Reaches altitude 10° 21:24:54 10° 325° (NW) 2,479 7.3 -21.3°
Maximum altitude 21:30:29 60° 247° (WSW) 964 4.0 -21.9°
Enters shadow 21:32:37 36° 185° (S) 1,296 4.3 -22.1°
